[[{"header":{"parameterUnit":"m.s-1","parameterCategory":2,"la1":30.2991,"la2":30.254,"lo1":-89.0895,"lo2":-89.0444,"dy":0.0017,"dx":0.0017,"nx":28,"ny":28,"refTime":"2025-01-18T03:00:00:Z","depth":"0","parameterNumber":2,"parameterNumberName":"U-component_of_CURRENTS"},"data":[0,0,0,0,0,0,0,0,0,0,0,0,0,0,0,0,0,0,0,0,0,0,0,0,0,0,0,0,0,0,0,0,0,0,0,0,0,0,0,0,0,0,0,0,0,0,0,0,0,0,0,0,0,0,0,0,0,0,0.2996,0.2996,0,0.3089,0.309,0.3092,0.3135,0.3134,0.3133,0.3132,0.3077,0.3076,0.3076,0,0,0,0,0,0,0,0,0,0,0,0,0,0.2989,0.2989,0.2996,0.2996,0.2997,0.3088,0.309,0.3093,0.3136,0.3134,0.3133,0.3132,0.3077,0.3076,0.3076,0,0,0,0,0,0,0,0,0,0,0,0,0,0.3037,0.2989,0.2996,0.3021,0.3024,0.3088,0.3091,0.3093,0.3136,0.3134,0.3133,0.3131,0.3077,0.3076,0.3076,0.3101,0,0,0.3073,0.3073,0,0,0,0,0,0,0,0,0.3034,0.3039,0.3017,0.302,0.3022,0.309,0.3067,0.3085,0.3136,0.3104,0.3132,0.3131,0.3062,0.3062,0.31,0.3098,0.3096,0.3073,0.3073,0.3072,0.3072,0,0,0,0,0,0,0,0.3031,0.3036,0.3043,0.3017,0.302,0.3073,0.3078,0.3073,0.3096,0.3107,0.3108,0.3102,0.3063,0.3101,0.3098,0.3095,0.3073,0.3072,0.3072,0.3071,0.3101,0.3102,0,0,0,0,0,0,0.2993,0.3032,0.304,0.3045,0.3013,0.3073,0.3079,0.3078,0.3099,0.3099,0.3103,0.3103,0.3103,0.3099,0.3096,0.3154,0.3072,0.3071,0.3071,0.31,0.3101,0.3103,0,0,0,0,0,0,0.2993,0.2994,0.3036,0.3032,0.304,0.3072,0.3072,0.308,0.3094,0.3096,0.3095,0.3103,0.3102,0.3097,0.3098,0.315,0.3071,0.307,0.3098,0.31,0.3102,0.325,0,0,0,0,0,0,0.2993,0.2993,0.2987,0.303,0.3038,0.3058,0.3073,0.3083,0.3089,0.309,0.3096,0.3091,0.31,0.3099,0.3097,0.3147,0.307,0.3097,0.3099,0.3101,0.3243,0.3257,0.3268,0,0,0,0,0,0.2992,0.2995,0.2987,0.2987,0.3026,0.3057,0.3068,0.3093,0.309,0.3101,0.3116,0.309,0.3112,0.31,0.3097,0.3148,0.3095,0.3098,0.3101,0.3238,0.3254,0.3268,0,0,0,0,0,0,0.2995,0.3,0.2992,0.2995,0.3009,0.3059,0.3082,0.3081,0.3109,0.3112,0.3107,0.3105,0.3125,0.3103,0.3089,0.3159,0.3099,0.3101,0.3204,0.3218,0.3231,0.3188,0.3069,0,0,0,0,0,0.2987,0.2989,0.2996,0.3001,0.301,0.3039,0.3054,0.3066,0.3089,0.3101,0.3104,0.3114,0.3142,0.3149,0.3154,0.3189,0.3149,0.3216,0.3228,0.3239,0.32,0.3217,0.3228,0.3112,0.3112,0.3112,0,0,0.2982,0.2991,0.2987,0.3,0.3028,0.3058,0.3048,0.3073,0.3102,0.3087,0.3131,0.3143,0.3153,0.3212,0.3218,0.3198,0.3256,0.3243,0.3253,0.3206,0.3221,0.3232,0.3242,0.3114,0.3113,0.3113,0,0,0.2995,0.2992,0.3001,0.3021,0.3041,0.3068,0.306,0.3095,0.3117,0.3159,0.3166,0.3196,0.323,0.3265,0.3286,0.3352,0.3311,0.336,0.3406,0.3427,0.3436,0.3444,0.3435,0.3441,0.3381,0.3382,0.3382,0,0.3005,0.3001,0.3009,0.3038,0.3054,0.3065,0.3087,0.3129,0.3157,0.3173,0.3178,0.3247,0.3262,0.3331,0.338,0.3382,0.337,0.3365,0.3445,0.3451,0.3456,0.3445,0.3449,0.3389,0.3388,0.3387,0.3387,0,0.3019,0.3026,0.3045,0.308,0.3103,0.3127,0.3165,0.3193,0.322,0.3249,0.3299,0.3341,0.3368,0.3413,0.3431,0.3488,0.346,0.3455,0.3413,0.3478,0.3461,0.3463,0.34,0.3397,0.3395,0.3393,0,0,0.3023,0.3049,0.3058,0.3059,0.3122,0.3135,0.3207,0.3251,0.3284,0.3333,0.337,0.3462,0.3454,0.3471,0.3496,0.3538,0.3607,0.3525,0.3523,0.3523,0.3634,0.3644,0.3646,0.3631,0.3632,0.3632,0.3617,0,0.3034,0.3067,0.3092,0.3123,0.3128,0.318,0.3238,0.3285,0.3343,0.3386,0.3432,0.3475,0.3488,0.3517,0.3559,0.3584,0.3613,0.3608,0.3559,0.3556,0.3566,0.3649,0.37,0.3694,0.3619,0.3619,0.3619,0,0.3017,0.3043,0.3067,0.3102,0.3116,0.3151,0.3225,0.328,0.3364,0.3417,0.3466,0.3481,0.3539,0.3542,0.3593,0.3594,0.3606,0.3628,0.3628,0.357,0.3569,0.3609,0.3699,0.375,0.3621,0.3621,0.3621,0,0.2948,0.3009,0.3017,0.3035,0.31,0.3128,0.3178,0.3272,0.3322,0.3416,0.3455,0.3509,0.3537,0.3563,0.3605,0.3604,0.3652,0.3652,0.3659,0.3658,0.3649,0.3647,0.378,0.3665,0.3665,0.3665,0.3665,0,0.2913,0.2917,0.2978,0.2979,0.3009,0.3069,0.3121,0.3204,0.3299,0.335,0.3435,0.348,0.3547,0.3581,0.3603,0.364,0.3644,0.3657,0.3662,0.3705,0.3708,0.3705,0.3693,0.3664,0.3664,0.3664,0.3664,0,0.2816,0.2859,0.2858,0.293,0.296,0.2975,0.3083,0.3123,0.3235,0.3304,0.3327,0.3456,0.3531,0.3578,0.3641,0.3643,0.363,0.3679,0.3713,0.3723,0.377,0.3762,0.3556,0.3432,0.3676,0.3676,0.3676,0,0.2767,0.2748,0.2811,0.2821,0.2853,0.2901,0.2945,0.3079,0.3133,0.3285,0.3303,0.341,0.3513,0.3616,0.3675,0.3719,0.363,0.3741,0.3746,0.3783,0.3779,0.3558,0.345,0.3799,0.38,0.3801,0.3802,0,0.2659,0.2674,0.2684,0.273,0.2761,0.2808,0.2879,0.292,0.3067,0.3162,0.329,0.339,0.3546,0.3674,0.375,0.3771,0.3663,0.376,0.3808,0.3887,0.3641,0.3523,0.3774,0.3811,0.381,0.3809,0.3809,0.3808,0.2566,0.2567,0.2591,0.2631,0.2665,0.2709,0.2739,0.2836,0.2942,0.3106,0.3231,0.3441,0.3698,0.3861,0.3816,0.3903,0.3704,0.3914,0.3899,0.3666,0.3553,0.3803,0.3844,0.3844,0.3843,0.3843,0.3842,0,0.2456,0.2487,0.2507,0.2551,0.256,0.2622,0.2694,0.274,0.2855,0.3094,0.3258,0.3632,0.3845,0.3991,0.4191,0.4134,0.3856,0.4056,0.3826,0.3705,0.4003,0.4029,0.4102,0.4102,0.4102,0.4102,0.4102,0.4102,0.2402,0.2398,0.2442,0.2445,0.2477,0.2488,0.2522,0.2621,0.2798,0.3085,0.3353,0.3578,0.4022,0.4449,0.4541,0.4396,0.4082,0.3932,0.3764,0.4154,0.4141,0.4128,0.4155,0.4254,0.4254,0.3375,0.337,0.3366]},{"header":{"parameterUnit":"m.s-1","parameterCategory":2,"la1":30.2991,"la2":30.254,"lo1":-89.0895,"lo2":-89.0444,"dy":0.0017,"dx":0.0017,"nx":28,"ny":28,"refTime":"2025-01-18T03:00:00:Z","depth":"0","parameterNumber":3,"parameterNumberName":"V-component_of_CURRENTS"},"data":[0,0,0,0,0,0,0,0,0,0,0,0,0,0,0,0,0,0,0,0,0,0,0,0,0,0,0,0,0,0,0,0,0,0,0,0,0,0,0,0,0,0,0,0,0,0,0,0,0,0,0,0,0,0,0,0,0,0,-0.0154,-0.0154,0,-0.0251,-0.0253,-0.0255,-0.0329,-0.0329,-0.0329,-0.0328,-0.0409,-0.0411,-0.0413,0,0,0,0,0,0,0,0,0,0,0,0,0,-0.0158,-0.0157,-0.0154,-0.0154,-0.0155,-0.0251,-0.0253,-0.0256,-0.0329,-0.0329,-0.0329,-0.0328,-0.0408,-0.0411,-0.0413,0,0,0,0,0,0,0,0,0,0,0,0,0,-0.0205,-0.0157,-0.0154,-0.0195,-0.0199,-0.025,-0.0253,-0.0256,-0.0329,-0.0329,-0.0328,-0.0328,-0.0407,-0.041,-0.0414,-0.0443,0,0,-0.0425,-0.0426,0,0,0,0,0,0,0,0,-0.0202,-0.0206,-0.0189,-0.0193,-0.0197,-0.0269,-0.0283,-0.0314,-0.0329,-0.0291,-0.0328,-0.0328,-0.0354,-0.0362,-0.0396,-0.0447,-0.045,-0.0425,-0.0427,-0.0429,-0.043,0,0,0,0,0,0,0,-0.0199,-0.0203,-0.0203,-0.0189,-0.0194,-0.0251,-0.0258,-0.0291,-0.0331,-0.0294,-0.0297,-0.0292,-0.0357,-0.0392,-0.0398,-0.0452,-0.0425,-0.0428,-0.043,-0.0432,-0.0473,-0.0472,0,0,0,0,0,0,-0.016,-0.0199,-0.02,-0.0205,-0.0187,-0.025,-0.0258,-0.0254,-0.0331,-0.0339,-0.0292,-0.0295,-0.0386,-0.0394,-0.0401,-0.039,-0.0429,-0.0432,-0.0434,-0.0474,-0.0473,-0.0472,0,0,0,0,0,0,-0.016,-0.0159,-0.0195,-0.0196,-0.0203,-0.0249,-0.0245,-0.0256,-0.0271,-0.0328,-0.0338,-0.0291,-0.0386,-0.0396,-0.0412,-0.0395,-0.0434,-0.0437,-0.0475,-0.0474,-0.0472,-0.0401,0,0,0,0,0,0,-0.0159,-0.0159,-0.0152,-0.0193,-0.0201,-0.0189,-0.0245,-0.0258,-0.0264,-0.0269,-0.033,-0.0339,-0.0387,-0.0407,-0.0416,-0.0401,-0.044,-0.0477,-0.0475,-0.0473,-0.0404,-0.0397,-0.039,0,0,0,0,0,-0.0159,-0.0155,-0.0151,-0.0151,-0.0187,-0.0186,-0.0196,-0.0236,-0.0263,-0.0253,-0.0305,-0.0336,-0.04,-0.0409,-0.042,-0.0406,-0.0478,-0.0475,-0.0473,-0.0407,-0.0398,-0.0391,0,0,0,0,0,0,-0.017,-0.0162,-0.0159,-0.0156,-0.0146,-0.0194,-0.0204,-0.0219,-0.0258,-0.0268,-0.033,-0.0342,-0.035,-0.0383,-0.039,-0.041,-0.0441,-0.0441,-0.0387,-0.0379,-0.0372,-0.033,-0.0442,0,0,0,0,0,-0.0158,-0.0147,-0.0139,-0.0135,-0.0128,-0.0159,-0.0168,-0.0179,-0.0212,-0.023,-0.027,-0.0316,-0.0354,-0.0368,-0.0403,-0.0415,-0.0443,-0.0409,-0.0402,-0.0396,-0.0368,-0.0413,-0.0408,-0.0464,-0.0464,-0.0464,0,0,-0.0163,-0.0156,-0.0152,-0.0134,-0.0147,-0.0122,-0.0167,-0.0161,-0.0149,-0.0231,-0.0243,-0.0291,-0.035,-0.0368,-0.0374,-0.0391,-0.0395,-0.0393,-0.0388,-0.0362,-0.041,-0.0405,-0.04,-0.0463,-0.0463,-0.0463,0,0,-0.0138,-0.0154,-0.0114,-0.0103,-0.0081,-0.0098,-0.0079,-0.0096,-0.0113,-0.0119,-0.0181,-0.0207,-0.0264,-0.0302,-0.0332,-0.0302,-0.0356,-0.0315,-0.025,-0.0294,-0.029,-0.0286,-0.0316,-0.0316,-0.0313,-0.0313,-0.0312,0,-0.0154,-0.0091,-0.0104,-0.0059,-0.005,-0.0073,-0.0026,-0.0049,-0.0068,-0.0073,-0.0103,-0.0182,-0.0232,-0.0257,-0.0252,-0.0285,-0.0317,-0.0281,-0.0285,-0.0282,-0.028,-0.0312,-0.0312,-0.0309,-0.0309,-0.031,-0.031,0,-0.0063,-0.0035,-0.0021,0.0032,0.0041,0.0066,0.0062,0.0061,0.0033,0.0019,-0.0001,-0.0077,-0.0118,-0.0144,-0.0195,-0.0199,-0.0229,-0.0273,-0.0306,-0.027,-0.0306,-0.0308,-0.0303,-0.0305,-0.0306,-0.0307,0,0,-0.0051,0.0025,0.0031,0.0072,0.0089,0.0109,0.0121,0.0139,0.0153,0.0117,0.0124,0.0052,0.0019,-0.0015,-0.0081,-0.0119,-0.0143,-0.0181,-0.0185,-0.0208,-0.0233,-0.0268,-0.0275,-0.0198,-0.0198,-0.0198,-0.0265,0,0.0022,0.0117,0.0136,0.0209,0.0255,0.0226,0.0239,0.0244,0.0226,0.0224,0.0153,0.0132,0.0064,0.0039,-0.0006,-0.011,-0.0144,-0.0119,-0.0264,-0.0267,-0.0303,-0.0277,-0.0275,-0.0335,-0.0267,-0.0267,-0.0268,0,0.0131,0.0176,0.0261,0.0307,0.0322,0.0349,0.0364,0.0383,0.0365,0.0347,0.032,0.0261,0.0207,0.0134,0.0003,0.0017,-0.0085,-0.0168,-0.0174,-0.0226,-0.0306,-0.0361,-0.0342,-0.0564,-0.0271,-0.0271,-0.0271,0,0.0184,0.0264,0.0327,0.0342,0.0388,0.0406,0.0422,0.0423,0.0451,0.0433,0.0442,0.0365,0.0321,0.0194,0.0027,0.001,-0.0126,-0.0181,-0.03,-0.0304,-0.0337,-0.0343,-0.0544,-0.026,-0.026,-0.026,-0.026,0,0.0257,0.031,0.0355,0.039,0.0462,0.0468,0.0536,0.0535,0.0551,0.0599,0.0516,0.0523,0.0332,0.0226,0.0069,-0.0113,-0.0097,-0.0268,-0.0319,-0.0312,-0.0315,-0.0538,-0.0692,-0.0262,-0.0262,-0.0261,-0.0261,0,0.0313,0.0339,0.0425,0.0477,0.0497,0.055,0.0618,0.0665,0.0665,0.0719,0.0716,0.0639,0.0503,0.0308,0.0095,-0.0057,-0.038,-0.0304,-0.0273,-0.0319,-0.0636,-0.0785,-0.1026,-0.1168,-0.0437,-0.0439,-0.044,0,0.0349,0.0401,0.0489,0.0537,0.0563,0.0638,0.0689,0.072,0.0779,0.0796,0.0827,0.0718,0.0676,0.036,0.0062,-0.0209,-0.0435,-0.0399,-0.043,-0.0638,-0.0843,-0.0932,-0.1041,-0.0448,-0.0449,-0.0449,-0.045,0,0.0417,0.0445,0.0507,0.0608,0.0674,0.0768,0.0843,0.0911,0.0947,0.1,0.1041,0.1012,0.0706,0.0452,0.0061,-0.0159,-0.0593,-0.0425,-0.0656,-0.0872,-0.0966,-0.1131,-0.0416,-0.0457,-0.0457,-0.0456,-0.0456,-0.0455,0.0458,0.0503,0.0576,0.0675,0.0764,0.0875,0.0969,0.1062,0.1178,0.1292,0.1234,0.1282,0.0855,0.0334,-0.0032,-0.0655,-0.0678,-0.0816,-0.0978,-0.1044,-0.1193,-0.0483,-0.0579,-0.0578,-0.0578,-0.0578,-0.0578,0,0.0484,0.0531,0.0632,0.0748,0.086,0.09,0.1054,0.1174,0.1334,0.1482,0.1552,0.1431,0.0871,0.0287,-0.0544,-0.1052,-0.1274,-0.1361,-0.1496,-0.1583,-0.0953,-0.0964,-0.1128,-0.1128,-0.1128,-0.1127,-0.1127,-0.1127,0.0489,0.057,0.062,0.0795,0.089,0.1062,0.1164,0.1355,0.1525,0.1774,0.1886,0.1906,0.1502,-0.0106,-0.1219,-0.1543,-0.1973,-0.2077,-0.2288,-0.1863,-0.1824,-0.1786,-0.1831,-0.2174,-0.2176,-0.2826,-0.2833,-0.2838]}],[{"header":{"parameterUnit":"m.s-1","parameterCategory":2,"la1":30.2991,"la2":30.254,"lo1":-89.0895,"lo2":-89.0444,"dy":0.0017,"dx":0.0017,"nx":28,"ny":28,"refTime":"2025-01-18T03:00:00:Z","depth":"2","parameterNumber":2,"parameterNumberName":"U-component_of_CURRENTS"},"data":[0,0,0,0,0,0,0,0,0,0,0,0,0,0,0,0,0,0,0,0,0,0,0,0,0,0,0,0,0,0,0,0,0,0,0,0,0,0,0,0,0,0,0,0,0,0,0,0,0,0,0,0,0,0,0,0,0,0,0.2897,0.2897,0,0.2889,0.2889,0.2889,0.2947,0.2949,0.2951,0.2953,0.2994,0.2993,0.2993,0,0,0,0,0,0,0,0,0,0,0,0,0,0.2906,0.2905,0.2897,0.2897,0.2897,0.2889,0.2889,0.2889,0.2947,0.2949,0.2951,0.2953,0.2994,0.2993,0.2992,0,0,0,0,0,0,0,0,0,0,0,0,0,0.2899,0.2905,0.2897,0.2926,0.2929,0.2889,0.2889,0.2889,0.2947,0.2949,0.2952,0.2954,0.2994,0.2993,0.2992,0.2935,0,0,0.299,0.299,0,0,0,0,0,0,0,0,0.29,0.2899,0.2922,0.2924,0.2927,0.2923,0.2907,0.2907,0.2946,0.2938,0.2953,0.2956,0.2973,0.2974,0.2965,0.2937,0.2938,0.299,0.2989,0.2989,0.2989,0,0,0,0,0,0,0,0.29,0.2899,0.2893,0.2921,0.2925,0.292,0.2923,0.2907,0.2941,0.2939,0.2944,0.2944,0.2975,0.2965,0.2966,0.2939,0.299,0.2989,0.2989,0.2988,0.3026,0.3028,0,0,0,0,0,0,0.2903,0.2899,0.2893,0.2892,0.2921,0.2918,0.2921,0.2921,0.294,0.2946,0.2942,0.2947,0.2965,0.2967,0.2968,0.3072,0.2989,0.2988,0.2988,0.3025,0.3026,0.3028,0,0,0,0,0,0,0.2903,0.2903,0.2893,0.2897,0.2896,0.2916,0.2915,0.2919,0.2936,0.2942,0.2949,0.2958,0.2967,0.2969,0.3019,0.3068,0.2988,0.2987,0.3023,0.3025,0.3027,0.3171,0,0,0,0,0,0,0.2904,0.2903,0.2896,0.2897,0.2896,0.2911,0.2912,0.2917,0.2931,0.2938,0.2957,0.2962,0.297,0.302,0.3018,0.3065,0.2986,0.3021,0.3024,0.3027,0.3164,0.3178,0.3189,0,0,0,0,0,0.2904,0.289,0.2896,0.2895,0.2889,0.2913,0.2913,0.2933,0.2929,0.2953,0.2983,0.2963,0.3036,0.3021,0.3018,0.3067,0.302,0.3023,0.3026,0.3159,0.3175,0.3189,0,0,0,0,0,0,0.2895,0.2894,0.2902,0.289,0.2919,0.2924,0.2931,0.2936,0.2968,0.2977,0.2983,0.2991,0.3048,0.3027,0.301,0.3082,0.3022,0.3025,0.3123,0.3139,0.3151,0.3107,0.2986,0,0,0,0,0,0.2886,0.2879,0.2895,0.2893,0.2905,0.2916,0.2921,0.2941,0.2966,0.2982,0.2995,0.3012,0.3047,0.3074,0.308,0.3117,0.3078,0.3143,0.3155,0.3166,0.3127,0.3143,0.3154,0.3039,0.3039,0.3039,0,0,0.2881,0.2881,0.2876,0.2891,0.2906,0.2938,0.2928,0.2951,0.2986,0.2978,0.3026,0.3046,0.3062,0.3125,0.3146,0.3126,0.3184,0.3171,0.3181,0.3134,0.3148,0.3159,0.3169,0.3041,0.3041,0.3041,0,0,0.2887,0.2874,0.2883,0.291,0.294,0.2951,0.2964,0.2985,0.301,0.3063,0.3071,0.3122,0.3159,0.3192,0.3214,0.3283,0.324,0.3293,0.3338,0.3357,0.3367,0.3374,0.3366,0.3372,0.3314,0.3314,0.3314,0,0.2875,0.2893,0.2895,0.2928,0.2943,0.2964,0.2996,0.3024,0.3063,0.308,0.3104,0.3163,0.319,0.326,0.3309,0.3312,0.3302,0.3294,0.3375,0.3381,0.3386,0.3376,0.338,0.3321,0.332,0.332,0.3319,0,0.2917,0.2925,0.2937,0.2981,0.3005,0.3032,0.3075,0.3108,0.3135,0.3159,0.3225,0.3268,0.3298,0.3342,0.336,0.3416,0.3391,0.3384,0.3341,0.3407,0.3392,0.3394,0.3332,0.3329,0.3327,0.3325,0,0,0.2896,0.2946,0.2961,0.2966,0.3028,0.3041,0.3113,0.3163,0.3196,0.3256,0.3294,0.3387,0.3382,0.3399,0.3426,0.3465,0.3532,0.3453,0.3451,0.345,0.3559,0.3569,0.3572,0.3556,0.3557,0.3557,0.3545,0,0.2926,0.2963,0.3004,0.3044,0.3044,0.3097,0.3152,0.3204,0.3261,0.3305,0.3355,0.3401,0.3415,0.3446,0.3487,0.351,0.3537,0.3533,0.3486,0.3483,0.349,0.3575,0.3286,0.3253,0.3546,0.3546,0.3546,0,0.2943,0.2964,0.2991,0.3019,0.3034,0.3074,0.3137,0.3197,0.3281,0.3337,0.3392,0.3408,0.3467,0.3471,0.3522,0.3524,0.3533,0.3554,0.3554,0.3497,0.3496,0.3227,0.3244,0.3548,0.3548,0.3548,0.3548,0,0.2869,0.2936,0.2938,0.2957,0.302,0.3049,0.3098,0.3189,0.3239,0.3337,0.338,0.3436,0.3468,0.3493,0.3534,0.3532,0.3581,0.358,0.3584,0.3583,0.3287,0.326,0.3588,0.3588,0.3588,0.3588,0.3589,0,0.283,0.2842,0.2898,0.2901,0.2931,0.2986,0.304,0.3126,0.322,0.3274,0.3361,0.3411,0.3479,0.3513,0.3533,0.357,0.3574,0.3582,0.3588,0.3334,0.3314,0.3513,0.3504,0.3588,0.3588,0.3588,0.3588,0,0.2733,0.2776,0.2778,0.285,0.2881,0.2895,0.3009,0.3048,0.316,0.3234,0.3259,0.339,0.3467,0.3514,0.3573,0.3574,0.3605,0.3606,0.3302,0.3275,0.3585,0.3584,0.3601,0.3602,0.3602,0.3602,0.3603,0,0.2684,0.2658,0.2728,0.2745,0.2783,0.2831,0.2876,0.301,0.3064,0.3217,0.3239,0.3347,0.3439,0.354,0.352,0.3541,0.362,0.3317,0.3273,0.3586,0.359,0.3588,0.3587,0.2927,0.2921,0.2917,0.2914,0,0.2578,0.2594,0.2609,0.266,0.2699,0.2748,0.2822,0.2862,0.3007,0.3087,0.3213,0.33,0.3391,0.3317,0.3358,0.3333,0.3298,0.3237,0.3613,0.3009,0.2961,0.2962,0.298,0.2875,0.2879,0.2882,0.2884,0.2885,0.2493,0.2497,0.2523,0.257,0.261,0.2656,0.269,0.2698,0.2775,0.2799,0.3034,0.3032,0.3113,0.3027,0.2973,0.2908,0.3145,0.3024,0.3031,0.3044,0.3009,0.2969,0.2875,0.2879,0.2882,0.2885,0.2887,0,0.2353,0.2425,0.2448,0.2503,0.2457,0.2579,0.265,0.2543,0.2519,0.2562,0.2618,0.247,0.2485,0.2547,0.2396,0.2472,0.2374,0.2395,0.2226,0.227,0.2308,0.2228,0.1889,0.1886,0.1883,0.188,0,0,0.2295,0.2285,0.2326,0.2295,0.2367,0.2268,0.2298,0.2168,0.2106,0.1976,0.1972,0.2179,0.2415,0.2045,0.2081,0.195,0.2063,0.1871,0.2677,0.2515,0.2546,0.2693,0.2626,0,0,0,0,0]},{"header":{"parameterUnit":"m.s-1","parameterCategory":2,"la1":30.2991,"la2":30.254,"lo1":-89.0895,"lo2":-89.0444,"dy":0.0017,"dx":0.0017,"nx":28,"ny":28,"refTime":"2025-01-18T03:00:00:Z","depth":"2","parameterNumber":3,"parameterNumberName":"V-component_of_CURRENTS"},"data":[0,0,0,0,0,0,0,0,0,0,0,0,0,0,0,0,0,0,0,0,0,0,0,0,0,0,0,0,0,0,0,0,0,0,0,0,0,0,0,0,0,0,0,0,0,0,0,0,0,0,0,0,0,0,0,0,0,0,-0.0078,-0.0079,0,-0.0099,-0.0099,-0.0099,-0.0175,-0.0176,-0.0178,-0.018,-0.0332,-0.0334,-0.0337,0,0,0,0,0,0,0,0,0,0,0,0,0,-0.009,-0.009,-0.0078,-0.0079,-0.0079,-0.0099,-0.0099,-0.0099,-0.0174,-0.0176,-0.0178,-0.018,-0.0331,-0.0334,-0.0337,0,0,0,0,0,0,0,0,0,0,0,0,0,-0.0095,-0.009,-0.0078,-0.0119,-0.0122,-0.0099,-0.0099,-0.01,-0.0174,-0.0176,-0.0179,-0.0181,-0.033,-0.0334,-0.0337,-0.0309,0,0,-0.0349,-0.035,0,0,0,0,0,0,0,0,-0.0095,-0.0095,-0.0112,-0.0116,-0.012,-0.0137,-0.0159,-0.0176,-0.0173,-0.0154,-0.018,-0.0183,-0.0277,-0.0285,-0.0281,-0.0316,-0.0322,-0.0349,-0.0351,-0.0353,-0.0354,0,0,0,0,0,0,0,-0.0095,-0.0094,-0.0087,-0.0112,-0.0117,-0.0131,-0.0135,-0.0162,-0.0203,-0.0156,-0.0162,-0.0163,-0.028,-0.0277,-0.0286,-0.0325,-0.0349,-0.0352,-0.0354,-0.0356,-0.0409,-0.0408,0,0,0,0,0,0,-0.009,-0.0094,-0.0086,-0.0087,-0.0114,-0.0129,-0.0133,-0.0129,-0.02,-0.0213,-0.0161,-0.0166,-0.027,-0.0281,-0.0292,-0.0317,-0.0353,-0.0356,-0.0358,-0.041,-0.0409,-0.0408,0,0,0,0,0,0,-0.009,-0.0088,-0.0085,-0.0092,-0.0092,-0.0126,-0.0121,-0.0128,-0.0141,-0.0203,-0.0218,-0.0169,-0.0272,-0.0287,-0.034,-0.0322,-0.0358,-0.0361,-0.0411,-0.0409,-0.0408,-0.0334,0,0,0,0,0,0,-0.009,-0.0088,-0.008,-0.0091,-0.0092,-0.0076,-0.0118,-0.0126,-0.0137,-0.0145,-0.0214,-0.023,-0.0275,-0.0334,-0.0343,-0.0328,-0.0364,-0.0412,-0.041,-0.0409,-0.0337,-0.033,-0.0324,0,0,0,0,0,-0.009,-0.0071,-0.0079,-0.0078,-0.008,-0.0075,-0.0077,-0.011,-0.0135,-0.0132,-0.0193,-0.0229,-0.0331,-0.0336,-0.0348,-0.0333,-0.0412,-0.041,-0.0409,-0.034,-0.0332,-0.0324,0,0,0,0,0,0,-0.0086,-0.0076,-0.0086,-0.007,-0.0074,-0.0088,-0.0085,-0.0104,-0.0143,-0.0157,-0.0226,-0.0245,-0.0281,-0.0315,-0.0319,-0.0342,-0.0373,-0.0373,-0.0317,-0.0309,-0.0303,-0.026,-0.0367,0,0,0,0,0,-0.0074,-0.0053,-0.0057,-0.0046,-0.0043,-0.0061,-0.0063,-0.008,-0.0113,-0.0132,-0.0179,-0.023,-0.0273,-0.0302,-0.0338,-0.0353,-0.0382,-0.0348,-0.0341,-0.0335,-0.0307,-0.0353,-0.0348,-0.0402,-0.0402,-0.0402,0,0,-0.0076,-0.0062,-0.0057,-0.0042,-0.0047,-0.0027,-0.0069,-0.0064,-0.0057,-0.0142,-0.0156,-0.0209,-0.0272,-0.0294,-0.0312,-0.0328,-0.0336,-0.0333,-0.0328,-0.0302,-0.0351,-0.0346,-0.0341,-0.0401,-0.0401,-0.0401,0,0,-0.0043,-0.0049,-0.0011,-0.0007,0.0003,-0.0003,-0.0001,-0.001,-0.0028,-0.0043,-0.0105,-0.0146,-0.0205,-0.0241,-0.0272,-0.0246,-0.0299,-0.026,-0.0195,-0.024,-0.0236,-0.0233,-0.0264,-0.0264,-0.0258,-0.0258,-0.0258,0,-0.0038,0.0004,-0.0004,0.0035,0.0043,0.001,0.0045,0.0033,0.0004,-0.0001,-0.0043,-0.0114,-0.0172,-0.0199,-0.0194,-0.0228,-0.0263,-0.0223,-0.0232,-0.0229,-0.0227,-0.026,-0.0261,-0.0254,-0.0254,-0.0255,-0.0255,0,0.0027,0.0054,0.0073,0.0115,0.0122,0.0142,0.013,0.0126,0.0098,0.0086,0.0055,-0.0021,-0.0063,-0.0089,-0.0138,-0.0144,-0.0176,-0.0219,-0.025,-0.0217,-0.0254,-0.0256,-0.0248,-0.025,-0.0251,-0.0252,0,0,0.0061,0.0114,0.0116,0.0152,0.0166,0.0183,0.0192,0.0203,0.0216,0.0173,0.0179,0.0107,0.0072,0.0038,-0.0028,-0.0065,-0.0089,-0.0127,-0.0132,-0.0153,-0.0183,-0.0218,-0.0225,-0.0146,-0.0145,-0.0145,-0.0215,0,0.0117,0.0204,0.0209,0.0272,0.0318,0.0288,0.0302,0.03,0.0282,0.0278,0.0206,0.0184,0.0116,0.0091,0.0047,-0.0058,-0.0091,-0.0065,-0.0214,-0.0218,-0.025,-0.0227,-0.019,-0.025,-0.0218,-0.0219,-0.0219,0,0.0193,0.0241,0.0319,0.037,0.0383,0.0405,0.0425,0.0439,0.0418,0.0399,0.0369,0.0309,0.0254,0.0183,0.005,0.0065,-0.0036,-0.0118,-0.0124,-0.0177,-0.0256,-0.0279,-0.0257,-0.0224,-0.0223,-0.0223,-0.0223,0,0.0249,0.0322,0.0387,0.0401,0.0446,0.0461,0.0477,0.0478,0.0504,0.0482,0.0488,0.0409,0.0364,0.0237,0.0072,0.0055,-0.0082,-0.0136,-0.0254,-0.0259,-0.0262,-0.0266,-0.0216,-0.0216,-0.0216,-0.0216,-0.0215,0,0.0322,0.0369,0.0416,0.0447,0.0519,0.0526,0.0591,0.0588,0.0601,0.0646,0.0561,0.0565,0.0373,0.0266,0.0111,-0.0071,-0.0056,-0.0223,-0.0275,-0.0236,-0.0237,-0.0242,-0.0245,-0.0218,-0.0218,-0.0217,-0.0217,0,0.0377,0.0401,0.0484,0.0534,0.0554,0.0605,0.0669,0.0714,0.0713,0.0762,0.0757,0.0678,0.0541,0.0345,0.0133,-0.0018,-0.0194,-0.0264,-0.0197,-0.0239,-0.0347,-0.0344,-0.0394,-0.0396,-0.0397,-0.0398,-0.04,0,0.0412,0.0466,0.0549,0.0592,0.0614,0.0688,0.0738,0.0767,0.0823,0.0837,0.0865,0.0755,0.0709,0.0393,0.0108,-0.0159,-0.0206,-0.0323,-0.0347,-0.0317,-0.0363,-0.0358,-0.0354,-0.0325,-0.0325,-0.0325,-0.0326,0,0.0476,0.0503,0.056,0.0659,0.072,0.0812,0.0886,0.0952,0.0987,0.1036,0.1074,0.1043,0.0746,0.0493,0.0106,-0.0085,-0.0279,-0.0339,-0.0327,-0.0287,-0.0259,-0.0302,-0.0298,-0.0328,-0.0328,-0.0328,-0.0327,-0.0327,0.0511,0.0554,0.0625,0.072,0.0805,0.0915,0.1007,0.1111,0.1225,0.1322,0.1242,0.1215,0.0894,0.0433,0.0085,-0.0293,-0.028,-0.0412,-0.0408,-0.0405,-0.0386,-0.0362,-0.0446,-0.0447,-0.0447,-0.0448,-0.0448,0,0.0552,0.0579,0.0677,0.0787,0.0922,0.0936,0.109,0.123,0.1403,0.1456,0.1501,0.1215,0.0891,0.0511,-0.0031,-0.0359,-0.0379,-0.0479,-0.0421,-0.0416,-0.0412,-0.0392,-0.0455,-0.0456,-0.0457,-0.0458,0,0,0.0558,0.0642,0.0693,0.088,0.0956,0.1163,0.1266,0.1455,0.1571,0.1687,0.1648,0.1525,0.1038,0.0647,0.0192,-0.0125,-0.0196,-0.0197,-0.0156,-0.0027,-0.0019,-0.0339,-0.0299,0,0,0,0,0]}],[{"header":{"parameterUnit":"m.s-1","parameterCategory":2,"la1":30.2991,"la2":30.254,"lo1":-89.0895,"lo2":-89.0444,"dy":0.0017,"dx":0.0017,"nx":28,"ny":28,"refTime":"2025-01-18T03:00:00:Z","depth":"4","parameterNumber":2,"parameterNumberName":"U-component_of_CURRENTS"},"data":[0,0,0,0,0,0,0,0,0,0,0,0,0,0,0,0,0,0,0,0,0,0,0,0,0,0,0,0,0,0,0,0,0,0,0,0,0,0,0,0,0,0,0,0,0,0,0,0,0,0,0,0,0,0,0,0,0,0,0.1323,0.1324,0,0.1385,0.1385,0.1385,0.142,0.1421,0.1422,0.1423,0.1544,0.1546,0.1549,0,0,0,0,0,0,0,0,0,0,0,0,0,0.1215,0.1216,0.1323,0.1325,0.1326,0.1385,0.1385,0.1385,0.142,0.1421,0.1422,0.1423,0.1543,0.1546,0.1549,0,0,0,0,0,0,0,0,0,0,0,0,0,0.126,0.1217,0.1323,0.1357,0.1361,0.1384,0.1385,0.1385,0.142,0.1421,0.1422,0.1424,0.1542,0.1546,0.1549,0.1545,0,0,0.156,0.1562,0,0,0,0,0,0,0,0,0.1257,0.1263,0.135,0.1355,0.136,0.1403,0.1392,0.1444,0.1419,0.1389,0.1423,0.1424,0.1507,0.1514,0.1509,0.155,0.1556,0.1561,0.1563,0.1564,0.1565,0,0,0,0,0,0,0,0.1254,0.126,0.1339,0.1352,0.1358,0.1363,0.1369,0.1401,0.1434,0.1391,0.1396,0.1416,0.1509,0.1506,0.1513,0.1557,0.1561,0.1564,0.1566,0.1567,0.1756,0.1759,0,0,0,0,0,0,0.1263,0.1257,0.1337,0.1342,0.132,0.1364,0.1372,0.1381,0.1433,0.1444,0.1415,0.1417,0.1499,0.1509,0.1518,0.1637,0.1564,0.1568,0.157,0.1753,0.1757,0.176,0,0,0,0,0,0,0.126,0.1269,0.1335,0.1308,0.1318,0.1365,0.1375,0.1382,0.1444,0.1451,0.1462,0.1479,0.15,0.1512,0.1575,0.1638,0.1569,0.1573,0.175,0.1754,0.1758,0.1799,0,0,0,0,0,0,0.1257,0.1267,0.1296,0.1308,0.132,0.1386,0.1375,0.1382,0.1454,0.146,0.1509,0.1517,0.1502,0.157,0.1579,0.1642,0.1575,0.1746,0.1752,0.1757,0.1794,0.1804,0.1813,0,0,0,0,0,0.1252,0.1268,0.1296,0.1308,0.1351,0.1389,0.1395,0.1427,0.1457,0.1487,0.1511,0.1519,0.1612,0.1574,0.1584,0.165,0.1744,0.175,0.1757,0.179,0.1802,0.1813,0,0,0,0,0,0,0.1234,0.1275,0.1305,0.1335,0.1385,0.1399,0.143,0.1469,0.151,0.1527,0.1538,0.1547,0.164,0.1639,0.1598,0.1724,0.1688,0.1697,0.171,0.1722,0.1731,0.1748,0.1578,0,0,0,0,0,0.1247,0.1274,0.1321,0.1354,0.138,0.1424,0.1455,0.1484,0.1517,0.154,0.1573,0.1614,0.1663,0.1688,0.1727,0.1779,0.1786,0.1837,0.1846,0.1854,0.1878,0.192,0.1934,0.1781,0.1781,0.1781,0,0,0.1246,0.1279,0.1294,0.1355,0.1388,0.1438,0.1445,0.1504,0.1552,0.1546,0.1623,0.1661,0.1691,0.175,0.1793,0.176,0.1901,0.1862,0.1868,0.1888,0.1928,0.1942,0.1955,0.1785,0.1785,0.1784,0,0,0.1263,0.1295,0.1333,0.1378,0.1456,0.1477,0.1518,0.1572,0.1604,0.1677,0.1694,0.1761,0.183,0.1847,0.1868,0.196,0.1964,0.1997,0.2038,0.2078,0.209,0.2101,0.2117,0.2129,0.1982,0.1982,0.1982,0,0.1256,0.1324,0.1354,0.1411,0.1451,0.151,0.1566,0.1602,0.1674,0.1714,0.1719,0.185,0.1875,0.1949,0.1977,0.1983,0.1999,0.1982,0.2087,0.2098,0.2109,0.2122,0.2135,0.1985,0.1985,0.1984,0.1984,0,0.1323,0.1378,0.1402,0.149,0.1536,0.1589,0.1646,0.1704,0.1762,0.1813,0.1925,0.1941,0.2026,0.2045,0.2039,0.2138,0.2123,0.2103,0.2048,0.2126,0.2136,0.2148,0.1989,0.1988,0.1987,0.1986,0,0,0.1276,0.1416,0.1423,0.1479,0.1581,0.1613,0.1695,0.1783,0.1851,0.1932,0.2023,0.2103,0.2148,0.2177,0.2183,0.2202,0.2279,0.219,0.219,0.2187,0.2363,0.2214,0.2212,0.2277,0.2279,0.2282,0.2333,0,0.1316,0.1416,0.1483,0.1579,0.1634,0.17,0.177,0.186,0.1928,0.2025,0.2088,0.2188,0.2187,0.2233,0.2266,0.2286,0.2318,0.2267,0.2305,0.2306,0.2149,0.2224,0.2291,0.2342,0.2345,0.2347,0.2348,0,0.1362,0.1424,0.1523,0.1628,0.1657,0.1731,0.1835,0.1909,0.2048,0.2102,0.2214,0.2284,0.2376,0.2347,0.2427,0.2398,0.2411,0.24,0.2401,0.2262,0.2181,0.2255,0.237,0.2369,0.2367,0.2366,0.2364,0,0.132,0.1437,0.1514,0.1555,0.1695,0.1756,0.183,0.1956,0.2025,0.2173,0.2244,0.2366,0.2432,0.2478,0.2507,0.2483,0.2563,0.2518,0.2393,0.2382,0.2478,0.2466,0.2589,0.2589,0.2589,0.2589,0.2589,0,0.1321,0.1384,0.1509,0.1563,0.165,0.1753,0.1866,0.1941,0.2084,0.2173,0.2302,0.2365,0.2473,0.254,0.2548,0.251,0.2609,0.2425,0.2396,0.2493,0.2483,0.2485,0.2473,0.2591,0.2591,0.259,0.259,0,0.1275,0.1368,0.1466,0.1607,0.1651,0.1719,0.1879,0.1935,0.2084,0.2195,0.2258,0.2404,0.2471,0.2546,0.2604,0.2536,0.2524,0.2491,0.2601,0.2573,0.2304,0.2293,0.2347,0.2342,0.2338,0.2335,0.2332,0,0.1256,0.1314,0.1466,0.1511,0.1588,0.1701,0.176,0.192,0.198,0.2186,0.2217,0.2364,0.2441,0.2396,0.2483,0.2492,0.2465,0.2441,0.2371,0.2319,0.2285,0.2281,0.2275,0.2326,0.2325,0.2324,0.2323,0,0.1218,0.1297,0.1367,0.1445,0.152,0.1587,0.1696,0.1739,0.1914,0.207,0.2128,0.2187,0.2253,0.2295,0.2329,0.233,0.2441,0.24,0.2407,0.234,0.2294,0.2264,0.2263,0.2309,0.2311,0.2313,0.2313,0,0.1177,0.1189,0.1277,0.1338,0.1417,0.1433,0.1522,0.1591,0.1687,0.1922,0.1937,0.2078,0.2222,0.2213,0.2244,0.2238,0.2195,0.2108,0.2129,0.2145,0.2058,0.1968,0.1875,0,0,0,0,0,0.1094,0.1087,0.114,0.1193,0.1269,0.1304,0.1439,0.1534,0.1724,0.1707,0.1826,0.1885,0.194,0.202,0.1973,0.2152,0.2199,0.2087,0.2107,0.2235,0.225,0.2167,0,0,0,0,0,0,0.1041,0.1072,0.1085,0.1059,0.106,0.1108,0.1182,0.1315,0.1339,0.1547,0.1588,0.175,0.1832,0.193,0.1923,0.1949,0.1919,0.2195,0.2189,0.2226,0.224,0.2252,0.2172,0,0,0,0,0]},{"header":{"parameterUnit":"m.s-1","parameterCategory":2,"la1":30.2991,"la2":30.254,"lo1":-89.0895,"lo2":-89.0444,"dy":0.0017,"dx":0.0017,"nx":28,"ny":28,"refTime":"2025-01-18T03:00:00:Z","depth":"4","parameterNumber":3,"parameterNumberName":"V-component_of_CURRENTS"},"data":[0,0,0,0,0,0,0,0,0,0,0,0,0,0,0,0,0,0,0,0,0,0,0,0,0,0,0,0,0,0,0,0,0,0,0,0,0,0,0,0,0,0,0,0,0,0,0,0,0,0,0,0,0,0,0,0,0,0,0.0281,0.028,0,0.0263,0.0263,0.0264,0.0298,0.0298,0.0299,0.0299,0.0211,0.0208,0.0206,0,0,0,0,0,0,0,0,0,0,0,0,0,0.0297,0.0297,0.0281,0.028,0.0279,0.0263,0.0263,0.0264,0.0298,0.0298,0.0299,0.0299,0.0212,0.0209,0.0205,0,0,0,0,0,0,0,0,0,0,0,0,0,0.0292,0.0297,0.0281,0.0289,0.0289,0.0263,0.0263,0.0264,0.0298,0.0298,0.0299,0.03,0.0213,0.0209,0.0205,0.0164,0,0,0.0192,0.019,0,0,0,0,0,0,0,0,0.0292,0.0292,0.0289,0.0289,0.0288,0.0277,0.0236,0.0224,0.0297,0.0302,0.0299,0.03,0.0222,0.0217,0.0223,0.016,0.0156,0.0192,0.0189,0.0187,0.0186,0,0,0,0,0,0,0,0.0293,0.0293,0.0281,0.0288,0.0287,0.0276,0.0278,0.0235,0.0262,0.0301,0.0302,0.0289,0.0222,0.0227,0.022,0.0155,0.0192,0.0188,0.0185,0.0184,0.0051,0.005,0,0,0,0,0,0,0.0283,0.0293,0.0281,0.028,0.0284,0.0275,0.0277,0.0286,0.0264,0.026,0.0288,0.029,0.0234,0.0225,0.0217,0.0196,0.0187,0.0183,0.0181,0.0052,0.005,0.0049,0,0,0,0,0,0,0.0284,0.0283,0.0282,0.0279,0.0277,0.0274,0.0283,0.0285,0.0288,0.0253,0.025,0.0289,0.0234,0.0223,0.0188,0.0191,0.0182,0.0178,0.0053,0.0051,0.005,0.0133,0,0,0,0,0,0,0.0285,0.0284,0.0294,0.0279,0.0277,0.027,0.0282,0.0284,0.0275,0.0279,0.0252,0.0245,0.0234,0.0194,0.0184,0.0185,0.0174,0.0054,0.0052,0.005,0.0132,0.0135,0.0137,0,0,0,0,0,0.0286,0.0305,0.0295,0.0293,0.029,0.0269,0.0268,0.0272,0.0275,0.0278,0.0263,0.0246,0.0174,0.019,0.0178,0.0178,0.0055,0.0053,0.005,0.013,0.0134,0.0137,0,0,0,0,0,0,0.0324,0.0308,0.0299,0.0314,0.0288,0.0273,0.0279,0.0266,0.0259,0.0263,0.0236,0.0228,0.0197,0.0163,0.0182,0.0129,0.0109,0.0104,0.0174,0.0177,0.018,0.0192,0.0171,0,0,0,0,0,0.033,0.0341,0.0309,0.032,0.031,0.0289,0.0282,0.0275,0.0258,0.0258,0.0235,0.0204,0.0176,0.016,0.0126,0.0095,0.0057,0.0081,0.0084,0.0087,0.0085,0.0028,0.0026,0.0042,0.0042,0.0042,0,0,0.0343,0.0338,0.0342,0.0327,0.0316,0.0308,0.029,0.0279,0.0276,0.0243,0.0241,0.0209,0.0167,0.0147,0.0128,0.0123,0.0065,0.0084,0.0088,0.0084,0.0025,0.0024,0.0023,0.004,0.0041,0.0041,0,0,0.0369,0.0373,0.0382,0.0365,0.0336,0.0324,0.0315,0.029,0.0287,0.0263,0.0245,0.0215,0.0168,0.015,0.0132,0.0116,0.0079,0.01,0.0131,0.0076,0.0075,0.0074,0.0043,0.0038,0.0106,0.0106,0.0106,0,0.0389,0.0396,0.0378,0.0377,0.037,0.0331,0.0332,0.0319,0.0285,0.0278,0.0269,0.0205,0.0171,0.0148,0.0155,0.0126,0.0095,0.0134,0.0084,0.0081,0.0078,0.0047,0.004,0.011,0.0109,0.0109,0.0109,0,0.0404,0.0414,0.042,0.0413,0.0403,0.0397,0.0366,0.0356,0.034,0.032,0.0286,0.0242,0.0206,0.0189,0.0173,0.0138,0.0124,0.0096,0.0087,0.0082,0.0049,0.0041,0.0115,0.0114,0.0113,0.0112,0,0,0.0446,0.0435,0.0443,0.0443,0.0422,0.0417,0.0413,0.0395,0.0399,0.0353,0.0347,0.0297,0.0267,0.0242,0.0207,0.0164,0.0128,0.0132,0.0127,0.0122,0.0024,0.0031,0.0023,0.0097,0.0096,0.0094,0.0017,0,0.0465,0.0483,0.0472,0.0488,0.0487,0.0464,0.0469,0.0447,0.0427,0.0411,0.0351,0.033,0.0289,0.0279,0.0227,0.0151,0.0107,0.0153,0.0009,0.0006,0.0029,0.0013,0.009,0.0011,0.0009,0.0008,0.0007,0,0.0477,0.049,0.0512,0.0523,0.0525,0.0534,0.0541,0.0536,0.0503,0.0488,0.0446,0.0397,0.0337,0.0295,0.0163,0.0196,0.0116,0.0052,0.0047,0.0016,-0.0004,0.0006,-0.0009,-0.0008,-0.0006,-0.0005,-0.0004,0,0.05,0.0519,0.0546,0.0546,0.0551,0.0567,0.0577,0.0561,0.0573,0.0536,0.0536,0.0445,0.0409,0.0287,0.0161,0.0159,0.0011,-0.0013,-0.0085,-0.0084,-0.0101,-0.0099,-0.012,-0.012,-0.012,-0.012,-0.012,0,0.0516,0.054,0.0563,0.0574,0.0621,0.0605,0.0646,0.0645,0.0641,0.0659,0.058,0.0567,0.0403,0.0301,0.0174,0.0028,0.0016,-0.0084,-0.011,-0.0063,-0.0056,-0.0105,-0.0102,-0.0123,-0.0122,-0.0122,-0.0121,0,0.0528,0.0543,0.0573,0.0605,0.0629,0.066,0.0714,0.074,0.0729,0.0747,0.0741,0.0654,0.0528,0.0362,0.0169,0.006,-0.0089,-0.014,-0.0057,-0.0077,-0.015,-0.0142,-0.023,-0.023,-0.0231,-0.0231,-0.0232,0,0.0532,0.0546,0.061,0.0651,0.0675,0.0727,0.0773,0.0789,0.0819,0.0802,0.0815,0.0707,0.0628,0.0375,0.019,-0.0053,-0.0093,-0.0173,-0.0186,-0.0147,-0.0164,-0.0156,-0.0148,-0.0232,-0.0232,-0.0233,-0.0233,0,0.0538,0.0567,0.0605,0.0696,0.076,0.0827,0.089,0.092,0.0931,0.0917,0.088,0.0742,0.06,0.0392,0.0205,0.0027,-0.0125,-0.0178,-0.0179,-0.0192,-0.0151,-0.0166,-0.0157,-0.0234,-0.0234,-0.0234,-0.0234,0,0.0558,0.0596,0.0663,0.0742,0.0825,0.0911,0.0936,0.097,0.0996,0.0967,0.0952,0.0791,0.0689,0.0433,0.0261,0.0087,0.0033,-0.0038,-0.0047,-0.0048,0.0021,0.0101,0.007,0,0,0,0,0,0.0577,0.0638,0.071,0.0808,0.0885,0.0948,0.1012,0.1024,0.103,0.1016,0.0985,0.0852,0.0594,0.0484,0.0313,0.0241,-0.0001,0.0032,-0.0087,-0.0243,-0.0241,-0.0192,0,0,0,0,0,0,0.0599,0.0676,0.0718,0.0843,0.0923,0.1026,0.1074,0.1079,0.1063,0.1033,0.0906,0.0811,0.0568,0.0707,0.0317,0.0261,0.0158,-0.0094,-0.0098,-0.0244,-0.0243,-0.0241,-0.019,0,0,0,0,0]}]]